User: anonymous   Login
Location: Unspecified
(0.0000°N, 0.0000°E)
Time: 19:14:20
(UTC+00:00)
Language:

UWE-2 - Orbit

View from above orbital plane
View from above orbital plane
View from above satellite
View from above satellite

Ground track
Ground track

The orbit data is extracted from the following two-line orbital elements,

1 35934U 09051D   18139.89053110  .00000082  00000-0  29795-4 0  9994
2 35934  98.5374 288.6621 0005636 322.2415  37.8386 14.55763637459352
Epoch (UTC): 19 May 2018 21:22:21
Eccentricity: 0.0005636
inclination: 98.5374°
perigee height: 703 km
apogee height: 711 km
right ascension of ascending node: 288.6621°
argument of perigee: 322.2415°
revolutions per day: 14.55763637
mean anomaly at epoch: 37.8386°
orbit number at epoch: 45935

The dashed part of the orbit path shows where the satellite is in the earth's shadow,  

DLR